Weather History for KUES - October, 2012

Change the Weather History Date:

Sunday, October 14, 2012

  Actual Average Record
Temperature  
Mean Temperature 53 °F -  
Max Temperature 62 °F 61 °F 82 °F (1962)
Min Temperature 44 °F 41 °F 24 °F (1979)
Degree Days  
Heating Degree Days 12    
Growing Degree Days 3 (Base 50)    
Moisture  
Dew Point 54 °F    
Average Humidity 97    
Maximum Humidity 100    
Minimum Humidity 93    
Precipitation  
Precipitation 0.38 in - - ()
Sea Level Pressure  
Sea Level Pressure 29.64 in    
Wind  
Wind Speed 8 mph (SW)    
Max Wind Speed 17 mph    
Max Gust Speed 29 mph    
Visibility 6 miles    
Events Rain    
Averages and records for this station are not official NWS values.
T = Trace of Precipitation, MM = Missing Value Source: NWS Daily Summary

Daily Weather History Graph

Daily Weather History Graph

Search for Another Location

Airport or City:

Trip Planner

Search our weather history database for the weather conditions in past years. The results will help you decide how hot, cold, wet, or windy it might be!

Date:

Astronomy

Oct. 14, 2012 Rise Set
Actual Time 7:05 AM CDT 6:11 PM CDT
Civil Twilight 6:37 AM CDT 6:39 PM CDT
Nautical Twilight 6:04 AM CDT 7:12 PM CDT
Astronomical Twilight 5:31 AM CDT 7:45 PM CDT
Moon 6:04 AM CDT (10/14) 5:30 PM CDT (10/14)
Length of Visible Light 12h 02m
Length of Day
11h 05m
Waning Crescent, 1% of the Moon is Illuminated
Oct 14
Waning Crescent
Oct 15
New
Oct 21
First Quarter
Oct 29
Full
Nov 6
Last Quarter

Hourly Weather History & Observations

Time (CDT) Temp. Windchill Dew Point Humidity Pressure Visibility Wind Dir Wind Speed Gust Speed Precip Events Conditions
12:15 AM 60.8 °F - 60.8 °F 100% 29.75 in 2.5 mi South 5.8 mph - 0.01 in Rain Rain
12:35 AM 60.8 °F - 60.8 °F 100% 29.75 in 2.5 mi South 5.8 mph - 0.14 in Rain Rain
12:55 AM 60.8 °F - 60.8 °F 100% 29.74 in 3.0 mi South 6.9 mph - 0.15 in Rain Light Rain
1:15 AM 60.8 °F - 60.8 °F 100% 29.74 in 3.0 mi SSW 8.1 mph - 0.09 in Rain Heavy Rain
1:35 AM 60.8 °F - 60.8 °F 100% 29.73 in 5.0 mi SSW 5.8 mph - 0.11 in Rain Rain
1:55 AM 60.8 °F - 60.8 °F 100% 29.73 in 5.0 mi SSW 4.6 mph - 0.11 in   Overcast
2:35 AM 60.8 °F - 60.8 °F 100% 29.72 in 4.0 mi South 6.9 mph - N/A   Drizzle
2:55 AM 60.8 °F - 60.8 °F 100% 29.71 in 3.0 mi SSW 6.9 mph - 0.11 in Rain Heavy Rain
3:15 AM 60.8 °F - 60.8 °F 100% 29.69 in 5.0 mi South 3.5 mph - N/A Rain Light Rain
3:35 AM 60.8 °F - 59.0 °F 94% 29.68 in 3.0 mi SSE 4.6 mph - N/A   Overcast
3:55 AM 59.0 °F - 59.0 °F 100% 29.67 in 3.0 mi SSE 5.8 mph - N/A   Overcast
4:15 AM 59.0 °F - 59.0 °F 100% 29.66 in 2.5 mi SE 4.6 mph - N/A   Overcast
4:35 AM 59.0 °F - 59.0 °F 100% 29.66 in 3.0 mi South 5.8 mph - N/A   Overcast
4:55 AM 60.8 °F - 59.0 °F 94% 29.66 in 4.0 mi South 4.6 mph - N/A   Overcast
5:15 AM 60.8 °F - 59.0 °F 94% 29.65 in 3.0 mi SSE 3.5 mph - N/A Rain Light Rain
5:35 AM 59.0 °F - 59.0 °F 100% 29.64 in 2.5 mi SSE 5.8 mph - 0.01 in Rain Rain
5:45 AM 60.8 °F - 60.8 °F 100% 29.63 in 2.0 mi SE 6.9 mph - N/A Rain Rain
6:45 AM 60.8 °F - 60.8 °F 100% 29.59 in 2.0 mi East 5.8 mph - N/A Rain Rain
7:45 AM 60.8 °F - 60.8 °F 100% 29.55 in 1.0 mi SE 4.6 mph - N/A Rain Rain
8:45 AM 60.8 °F - 60.8 °F 100% 29.52 in 2.0 mi SE 6.9 mph - N/A   Light Drizzle
9:45 AM 60.8 °F - 60.8 °F 100% 29.50 in 3.0 mi South 11.5 mph - N/A Rain Light Rain
10:15 AM 62.6 °F - 60.8 °F 94% 29.50 in 10.0 mi SW 15.0 mph - N/A   Overcast
10:45 AM 62.6 °F - 60.8 °F 94% 29.49 in 10.0 mi SW 17.3 mph - N/A   Overcast
11:05 AM 62.6 °F - 60.8 °F 94% 29.50 in 1.5 mi SSW 13.8 mph 20.7 mph N/A Rain Rain
11:45 AM 60.8 °F - 60.8 °F 100% 29.49 in 5.0 mi SSW 12.7 mph 23.0 mph N/A Rain Light Rain
12:16 PM 60.8 °F - 60.8 °F 100% 29.47 in 7.0 mi SSW 10.4 mph - N/A   Overcast
12:45 PM 60.8 °F - 60.8 °F 100% 29.46 in 4.0 mi SW 10.4 mph 16.1 mph N/A Rain Rain
1:45 PM 57.2 °F - 55.4 °F 94% 29.44 in 10.0 mi West 10.4 mph - N/A Rain Light Rain
3:45 PM 48.2 °F - 46.4 °F 93% 29.49 in 10.0 mi NNW 11.5 mph - N/A   Overcast
4:45 PM 46.4 °F 41.1 °F 44.6 °F 93% 29.52 in 5.0 mi NW 11.5 mph 23.0 mph N/A   Light Drizzle
5:45 PM 46.4 °F 41.1 °F 44.6 °F 93% 29.55 in 5.0 mi NW 11.5 mph 23.0 mph N/A Rain Rain
6:20 PM 46.4 °F 41.1 °F 44.6 °F 93% 29.58 in 10.0 mi WNW 11.5 mph 25.3 mph N/A   Overcast
6:45 PM 46.4 °F 41.1 °F 44.6 °F 93% 29.61 in 10.0 mi WNW 11.5 mph 28.8 mph N/A   Overcast
7:45 PM 46.4 °F 39.5 °F 44.6 °F 93% 29.65 in 10.0 mi WNW 17.3 mph 28.8 mph N/A   Overcast
8:45 PM 44.6 °F 37.2 °F 44.6 °F 100% 29.69 in 10.0 mi WNW 17.3 mph 28.8 mph N/A   Overcast
9:15 PM 44.6 °F 37.8 °F 42.8 °F 93% 29.70 in 10.0 mi WNW 15.0 mph 24.2 mph N/A   Overcast
9:35 PM 44.6 °F 37.4 °F 42.8 °F 93% 29.71 in 10.0 mi WNW 16.1 mph 25.3 mph N/A   Overcast
9:55 PM 44.6 °F 38.4 °F 42.8 °F 93% 29.72 in 10.0 mi WNW 12.7 mph 23.0 mph N/A   Overcast
10:15 PM 44.6 °F 37.8 °F 42.8 °F 93% 29.73 in 10.0 mi WNW 15.0 mph 18.4 mph N/A   Overcast
10:35 PM 44.6 °F 37.8 °F 42.8 °F 93% 29.73 in 10.0 mi WNW 15.0 mph 20.7 mph N/A   Overcast
10:55 PM 44.6 °F 38.1 °F 42.8 °F 93% 29.73 in 10.0 mi WNW 13.8 mph - N/A   Overcast
11:15 PM 44.6 °F 38.4 °F 42.8 °F 93% 29.75 in 10.0 mi WNW 12.7 mph 19.6 mph N/A   Overcast
11:35 PM 44.6 °F 38.1 °F 42.8 °F 93% 29.75 in 10.0 mi WNW 13.8 mph - N/A   Overcast
11:55 PM 44.6 °F 37.8 °F 42.8 °F 93% 29.75 in 10.0 mi WNW 15.0 mph 19.6 mph N/A   Overcast